CAPE
0 0 0 0 0 0 0 0 0 0 0 0 0 0 0 0 0 0 0 0 0 0 0 2 0 42 150 124 104 67 0 0 0 0 0 0 0 0 0 0 0 0 0 0
0 0 0 0 0 0 0 0 0 0 0 0 0 0 0 0 0 0 0 0 0 0 0 2 11 138 143 139 160 61 6 0 0 0 0 0 0 0 0 0 0 0 0 0
0 0 0 0 0 0 0 0 0 0 0 0 0 0 0 0 0 0 0 0 0 6 0 7 34 127 82 54 22 26 0 0 0 0 0 0 0 0 0 0 0 0 0 0
0 0 0 0 0 0 0 0 0 0 0 0 0 0 0 0 0 0 0 0 0 0 0 1 0 0 0 0 0 0 0 0 0 0 0 0 0 0 0 0 0 0 0 0
0 0 0 0 0 0 0 0 0 0 0 0 0 0 0 0 0 0 0 0 0 0 0 0 0 0 0 0 0 0 0 0 0 0 0 0 0 0 0 0 0 0 0 0
0 0 0 0 0 0 0 0 0 0 0 0 0 0 0 0 0 0 0 0 0 0 0 0 0 0 0 0 0 0 0 0 0 0 0 0 0 0 0 0 0 0 0 0
0 0 0 0 0 0 0 0 0 3 0 0 0 0 0 0 0 0 0 0 0 0 0 0 0 0 0 0 0 0 0 0 0 0 0 0 0 0 0 0 0 0 0 0
0 0 0 0 0 0 0 0 0 0 0 0 0 0 0 0 0 0 0 0 0 0 0 0 0 0 0 0 0 0 0 0 0 0 0 0 0 0 0 0 0 0 0 0
0 0 0 0 0 0 0 0 0 0 0 0 0 0 0 0 0 0 0 0 0 0 0 0 0 0 0 0 0 0 0 0 0 0 0 0 0 0 0 0 0 0 0 0
0 0 0 0 0 0 0 0 0 0 0 0 0 0 0 0 0 0 0 0 0 0 0 0 0 0 0 0 0 0 0 0 0 0 0 0 0 0 0 0 0 0 0 0
0 0 0 0 0 0 0 0 0 0 0 0 0 0 0 0 0 0 0 0 0 0 0 0 0 0 0 0 0 0 0 0 0 0 0 0 0 0 0 0 0 0 0 0
0 0 0 0 0 0 0 0 0 0 0 0 0 0 0 0 0 0 0 0 0 0 0 0 0 0 0 0 0 0 0 0 0 0 0 0 0 0 0 0 0 0 0 0
0 0 0 0 0 0 0 0 0 0 0 0 0 0 0 0 0 0 0 0 0 0 0 0 0 0 0 0 0 0 0 0 0 0 0 0 0 0 0 0 0 0 0 0
0 0 0 0 0 0 0 0 0 0 0 0 0 0 0 0 0 0 0 0 0 0 0 0 0 0 0 0 0 0 0 0 0 0 0 0 0 0 0 0 0 0 0 3
0 0 0 0 0 0 0 0 0 0 0 0 0 0 0 0 0 0 0 0 0 0 0 0 0 0 0 0 0 0 0 0 0 0 0 0 0 0 0 0 0 0 0 10
0 0 0 0 0 0 0 0 0 0 0 0 0 0 0 0 0 0 0 0 0 0 0 0 0 0 0 0 0 0 0 0 0 0 0 0 0 0 0 0 0 0 1 2
0 0 0 0 0 0 0 0 0 0 0 0 0 0 0 0 0 0 0 0 0 0 0 0 0 0 0 0 0 0 0 0 0 0 0 0 0 0 0 0 0 0 3 0
0 0 0 0 0 0 0 0 0 0 0 0 0 0 0 0 0 0 0 0 0 0 0 0 0 0 0 0 0 0 0 0 0 0 0 0 0 0 0 0 0 0 0 2
0 0 0 0 0 0 0 0 0 0 0 0 0 0 0 0 0 0 0 0 0 0 0 0 0 0 0 0 0 0 0 0 0 0 0 0 0 0 0 0 0 0 0 4
0 0 0 0 0 0 0 0 0 0 0 0 0 0 0 0 0 0 0 0 0 0 0 0 0 0 0 0 0 0 0 0 0 0 0 0 0 0 0 0 0 0 0 0
0 0 0 0 0 0 0 0 0 0 0 0 0 0 0 0 0 0 0 0 0 0 0 0 0 0 0 0 0 0 0 0 0 0 0 0 0 0 0 0 0 0 0 0
0 0 0 0 0 0 0 0 0 0 0 0 0 0 0 0 0 0 0 0 0 0 0 0 0 0 0 0 0 0 0 0 0 0 0 0 0 0 0 0 0 0 0 0
0 0 0 0 0 0 0 0 0 0 0 0 0 0 0 0 0 0 0 0 0 0 0 0 0 0 0 0 0 0 0 0 0 0 0 0 0 0 0 0 0 0 0 0
0 0 0 0 0 0 0 0 0 0 0 0 0 0 0 0 0 0 0 0 0 0 0 0 0 0 0 0 0 0 0 0 0 0 0 0 0 0 0 0 0 0 0 0
0 0 0 0 0 0 0 0 0 0 0 0 0 0 0 0 0 0 0 0 0 0 0 0 0 0 0 0 0 0 0 0 0 0 0 1 1 2 3 2 0 0 0 0
0 0 0 0 0 0 0 0 0 0 0 0 0 0 0 0 0 0 0 0 0 0 0 0 0 0 0 0 0 0 0 0 0 0 0 2 9 5 5 5 1 0 0 0
CIN
0 0 0 0 0 0 0 0 0 0 0 0 0 0 0 0 0 0 0 0 0 0 0 0 0 -340 -253 -207 -174 -148 0 0 0 0 0 0 0 0 0 0 0 0 0 0
0 0 0 0 0 0 0 0 0 0 0 0 0 0 0 0 0 0 0 0 0 0 0 0 -278 -247 -188 -158 -120 -119 -116 0 0 0 0 0 0 0 0 0 0 0 0 0
0 0 0 0 0 0 0 0 0 0 0 0 0 0 0 0 0 0 0 0 0 -211 -25 -236 -278 -201 -195 -60 -66 -125 0 0 0 0 0 0 0 0 0 0 0 0 0 0
-35 0 0 0 0 0 0 0 0 0 0 0 0 0 0 0 0 0 0 0 0 0 0 -62 0 0 0 0 0 0 0 0 0 0 0 0 0 0 0 0 0 0 0 0
0 0 0 0 0 0 0 0 0 0 0 0 0 0 0 0 0 0 0 0 0 0 0 0 0 0 0 0 0 0 0 0 0 0 0 0 0 0 0 0 0 0 0 0
0 0 0 0 0 0 0 0 0 0 0 0 0 0 0 0 0 0 0 0 0 0 0 0 0 0 0 0 0 0 0 0 0 0 0 0 0 0 0 0 0 0 0 0
0 0 0 0 0 0 0 0 0 -43 0 0 0 0 0 0 0 0 0 0 0 0 0 0 0 0 0 0 0 0 0 0 0 0 0 0 0 0 0 0 0 0 0 0
0 0 0 0 0 0 0 0 0 0 0 0 0 0 0 0 0 0 0 0 0 0 0 0 0 0 0 0 0 0 0 0 0 0 0 0 0 0 0 0 0 0 0 0
0 0 0 0 0 0 0 0 0 0 0 0 0 0 0 0 0 0 0 0 0 0 0 0 0 0 0 0 0 0 0 0 0 0 0 0 0 0 0 0 0 0 0 0
0 0 0 0 0 0 0 0 0 0 0 0 0 0 0 0 0 0 0 0 0 0 0 0 0 0 0 0 0 0 0 0 0 0 0 0 0 0 0 0 0 0 0 0
0 0 0 0 0 0 0 0 0 0 0 0 0 0 0 0 0 0 0 0 0 0 0 0 0 0 0 0 0 0 0 0 0 0 0 0 0 0 0 0 0 0 0 0
0 0 0 0 0 0 0 0 0 0 0 0 0 0 0 0 0 0 0 0 0 0 0 0 0 0 0 0 0 0 0 0 0 0 0 0 0 0 0 0 0 0 0 0
0 0 0 0 0 0 0 0 0 0 0 0 0 0 0 0 0 0 0 0 0 0 0 0 0 0 0 0 0 0 0 0 0 0 0 0 0 0 0 0 0 0 0 0
0 0 0 0 0 0 0 0 0 0 0 0 0 0 0 0 0 0 0 0 0 0 0 0 0 0 0 0 0 0 0 0 0 0 0 0 0 0 0 0 0 0 0 0
0 0 0 0 0 0 0 0 0 0 0 0 0 0 0 0 0 0 0 0 0 0 0 0 0 0 0 0 0 0 0 0 0 0 0 0 0 0 0 0 0 0 0 0
0 0 0 0 0 0 0 0 0 0 0 0 0 0 0 0 0 0 0 0 0 0 0 0 0 0 0 0 0 0 0 0 0 0 0 0 0 0 0 0 0 0 0 0
0 0 0 0 0 0 0 0 0 0 0 0 0 0 0 0 0 0 0 0 0 0 0 0 0 0 0 0 0 0 0 0 0 0 0 0 0 0 0 0 0 0 -1 0
0 0 0 0 0 0 0 0 0 0 0 0 0 0 0 0 0 0 0 0 0 0 0 0 0 0 0 0 0 0 0 0 0 0 0 0 0 0 0 0 0 0 -1 -4
0 0 0 0 0 0 0 0 0 0 0 0 0 0 0 0 0 0 0 0 0 0 0 0 0 0 0 0 0 0 0 0 0 0 0 0 0 0 0 0 0 0 0 -6
0 0 0 0 0 0 0 0 0 0 0 0 0 0 0 0 0 0 0 0 0 0 0 0 0 0 0 0 0 0 0 0 0 0 0 0 0 0 0 0 0 0 0 0
0 0 0 0 0 0 0 0 0 0 0 0 0 0 0 0 0 0 0 0 0 0 0 0 0 0 0 0 0 0 0 0 0 0 0 0 0 0 0 0 0 0 0 0
0 0 0 0 0 0 0 0 0 0 0 0 0 0 0 0 0 0 0 0 0 0 0 0 0 0 0 0 0 0 0 0 0 0 0 0 0 0 0 0 0 0 0 0
0 0 0 0 0 0 0 0 0 0 0 0 0 0 0 0 0 0 0 0 0 0 0 0 0 0 0 0 0 0 0 0 0 0 0 0 0 0 0 0 0 0 0 0
0 0 0 0 0 0 0 0 0 0 0 0 0 0 0 0 0 0 0 0 0 0 0 0 0 0 0 0 0 0 0 0 0 0 0 0 0 0 0 0 0 0 0 0
0 0 0 0 0 0 0 0 0 0 0 0 0 0 0 0 0 0 0 0 0 0 0 0 0 0 0 0 0 0 0 0 0 0 0 0 0 -1 -2 0 0 0 0 0
0 0 0 0 0 0 0 0 0 0 0 0 0 0 0 0 0 0 0 0 0 0 0 0 0 0 0 0 0 0 0 0 0 0 0 -1 0 -4 -2 0 0 0 0 0
Wind_Speed
1 3 3 3 2 3 5 4 4 3 2 8 6 5 8 5 7 7 6 6 6 5 4 5 8 11 14 15 15 13 12 8 8 5 4 4 3 3 3 4 6 7 7 6
4 3 2 4 5 5 4 9 4 4 2 5 4 9 8 6 3 2 7 7 7 8 8 7 10 12 12 12 11 10 10 12 10 9 5 1 3 3 5 4 6 6 6 5
3 1 2 4 4 6 3 6 3 5 6 6 4 4 3 5 5 5 4 6 8 12 12 10 10 10 10 9 9 9 9 12 9 5 3 4 6 4 3 3 3 3 4 5
3 3 4 3 4 2 4 1 5 8 3 3 3 2 1 3 4 4 7 10 10 12 10 10 10 8 8 6 9 10 10 9 6 4 4 4 1 2 2 2 2 2 1 3
1 2 3 5 1 1 4 3 4 4 4 3 1 2 2 4 6 9 9 8 7 8 9 11 11 11 10 7 6 6 8 7 6 5 5 4 6 4 4 3 2 2 3 3
2 2 2 2 3 3 9 6 6 4 2 2 1 3 4 8 10 13 10 7 8 8 9 9 9 9 9 8 8 8 7 7 7 7 7 8 7 5 3 1 2 3 3 4
4 3 3 2 4 3 3 4 2 1 0 3 2 3 5 8 7 17 15 12 11 10 10 10 10 8 8 8 8 8 7 9 8 8 8 6 5 3 2 4 4 6 5 4
4 1 3 5 2 3 3 2 4 4 3 1 1 5 1 3 8 15 15 13 11 11 9 8 8 7 7 7 8 8 7 7 6 6 6 5 5 3 4 4 6 6 6 6
4 1 2 4 1 0 3 2 2 7 2 1 2 3 5 2 7 11 14 13 14 13 11 10 7 7 8 7 6 6 6 5 5 5 4 5 4 4 4 6 5 5 6 5
5 4 1 0 1 6 1 7 3 2 3 3 2 5 6 4 11 13 15 16 14 11 10 9 9 9 7 6 5 5 4 5 5 5 5 3 2 1 2 3 5 6 6 6
3 3 3 0 1 4 3 3 6 5 1 3 2 4 4 9 14 18 17 16 14 12 10 10 9 8 6 6 5 4 4 5 6 6 4 4 2 2 3 3 5 6 8 10
1 5 3 1 1 1 1 3 4 3 4 2 1 6 1 5 8 12 13 10 9 10 10 10 10 8 7 6 5 4 4 5 7 4 4 2 1 2 4 5 7 8 9 10
5 1 3 3 2 2 3 3 4 5 3 5 4 4 1 3 5 10 12 10 10 12 11 9 8 7 7 6 6 5 4 6 4 3 0 0 1 3 4 5 7 9 10 10
5 3 4 7 3 2 4 4 4 4 3 5 7 5 3 4 6 8 9 11 14 13 12 10 7 7 5 4 4 4 4 3 2 3 3 3 2 3 4 6 8 9 10 10
2 4 2 1 1 1 2 4 8 8 4 7 3 9 5 8 11 11 8 11 14 13 11 9 8 7 6 5 5 5 4 3 3 4 4 4 4 4 5 7 8 9 9 7
3 3 2 3 1 3 3 5 7 7 4 11 5 15 10 1 4 9 13 15 16 14 12 10 9 8 8 8 7 5 4 3 2 4 5 4 3 5 6 8 9 9 8 8
2 5 3 4 3 3 6 10 13 6 6 9 11 9 6 5 8 12 14 17 17 15 12 11 11 10 8 7 6 6 4 1 3 4 4 3 4 6 7 8 8 9 7 5
5 4 2 2 2 2 4 2 3 12 7 14 5 4 6 2 3 5 10 16 15 13 12 10 9 7 6 7 6 3 1 3 3 3 3 4 4 6 7 7 9 8 6 5
3 5 4 3 3 6 5 4 6 7 7 13 14 6 3 3 1 4 11 13 15 14 10 8 7 6 7 7 4 1 2 2 2 4 4 5 5 6 6 8 9 8 6 5
5 6 4 3 3 5 6 2 2 3 5 2 7 7 8 7 2 6 13 13 11 9 9 9 9 8 7 4 2 2 3 3 4 4 5 6 6 6 6 7 8 6 5 5
2 3 3 2 3 8 6 2 2 2 6 1 6 7 11 7 6 1 7 9 9 10 10 10 8 6 5 4 2 3 3 5 4 4 6 7 7 6 5 5 6 5 4 3
6 6 3 3 1 7 5 3 5 5 2 2 5 8 12 8 5 4 8 12 13 14 12 10 8 6 5 4 1 3 4 3 4 6 7 8 7 5 4 5 5 5 3 4
3 5 4 9 6 3 6 5 2 2 3 2 3 4 6 4 6 8 10 11 11 9 9 9 6 5 3 2 1 4 3 4 6 8 8 7 6 6 5 6 6 5 5 4
4 4 3 1 3 8 10 7 7 5 9 5 6 6 8 8 10 9 11 11 8 8 6 6 6 4 2 1 2 2 4 5 6 8 7 6 6 7 7 5 4 4 5 5
3 6 4 5 9 5 8 8 11 9 6 7 3 3 6 10 11 13 11 9 7 8 5 5 4 3 3 3 3 3 5 5 6 7 7 7 6 8 8 6 5 5 5 5
6 6 5 6 5 3 5 4 3 3 4 4 5 5 6 12 14 14 10 7 6 5 4 3 3 3 3 3 4 5 5 4 5 6 6 6 6 7 6 6 6 9 9 8
Wind_Direction
7 145 155 143 120 134 133 125 126 43 55 76 76 74 25 30 99 124 137 133 122 100 92 110 118 131 129 132 131 133 128 140 123 156 152 157 167 127 90 94 93 92 84 82
36 79 317 78 81 87 102 128 86 104 62 94 139 73 54 44 59 174 160 156 149 126 124 128 135 138 143 146 141 139 150 146 167 173 171 121 143 100 99 88 74 80 98 93
121 134 100 75 79 101 51 112 140 121 115 83 149 101 52 48 78 111 129 145 136 139 138 139 134 136 134 142 151 163 151 158 169 162 130 105 99 109 133 123 104 103 92 80
84 337 86 89 92 150 93 31 116 124 112 138 336 241 76 112 120 136 136 134 127 132 138 138 142 130 117 113 123 139 147 148 138 158 177 166 115 143 94 134 134 111 86 82
239 78 99 72 346 44 125 91 90 95 88 139 106 239 75 156 182 182 178 153 143 151 143 144 147 141 132 116 98 104 117 121 117 118 128 122 96 95 110 122 170 235 238 234
102 57 50 112 54 44 148 85 59 70 108 194 101 235 194 197 203 185 189 176 164 156 150 150 147 159 145 137 134 123 139 119 112 103 98 98 107 117 114 168 279 278 284 285
19 6 311 77 104 69 90 80 27 18 355 232 15 203 264 212 198 186 185 183 177 174 170 167 167 174 142 129 123 120 121 96 91 91 89 93 103 99 350 335 328 316 305 299
135 233 3 342 74 141 63 140 159 202 204 244 165 234 204 274 195 184 180 177 176 186 185 176 173 160 132 117 110 104 110 111 102 95 93 69 48 12 342 327 321 309 305 299
139 53 352 33 78 78 156 121 124 105 39 293 258 267 247 80 153 169 167 173 188 192 182 174 163 140 126 129 128 132 118 114 118 104 79 53 30 7 342 331 322 308 302 292
182 116 28 127 105 56 137 136 125 41 158 248 277 274 253 201 190 181 181 189 191 187 177 166 149 135 137 143 131 119 132 108 83 94 74 66 73 8 323 330 334 332 321 297
129 105 262 203 21 170 143 111 64 102 85 170 286 256 218 229 194 195 196 194 190 183 172 156 142 143 144 131 143 132 103 111 105 102 120 131 98 32 18 354 339 332 321 313
138 123 132 183 301 303 118 139 138 128 179 72 76 274 288 290 221 210 203 186 168 167 158 150 153 158 157 145 138 143 138 114 94 122 125 97 74 35 5 355 345 330 315 313
185 63 96 12 360 348 213 146 108 105 104 188 161 258 205 308 242 207 196 179 165 157 154 159 164 173 163 160 161 154 122 101 153 132 170 276 30 4 349 329 319 321 323 320
89 113 162 188 185 149 176 177 170 138 144 169 232 269 256 252 228 204 187 177 170 166 167 172 175 171 166 161 145 141 137 156 178 259 301 296 281 293 314 314 322 329 329 326
101 149 127 111 22 254 226 181 184 204 169 191 226 220 233 232 223 209 184 166 166 174 178 184 183 177 175 173 171 168 175 194 252 278 282 258 257 291 301 322 331 330 325 320
20 160 129 186 7 11 275 241 209 228 222 253 244 267 219 236 147 174 186 180 183 184 187 188 183 180 189 194 179 162 191 234 267 282 280 260 266 293 322 330 322 318 319 314
94 137 119 244 4 1 316 222 205 194 206 209 220 241 167 199 216 213 192 190 188 186 187 188 184 191 194 170 161 182 204 281 281 273 262 254 277 310 322 316 314 315 317 311
125 98 60 152 11 263 249 182 189 223 236 215 247 185 198 203 218 220 196 190 186 185 189 187 184 175 159 153 167 181 236 264 264 260 257 273 296 305 305 306 311 314 300 279
55 122 98 148 206 304 276 186 186 183 274 212 224 194 143 120 135 250 197 194 189 188 184 176 168 153 154 154 150 232 271 267 251 270 279 286 290 290 298 306 312 305 289 272
57 59 108 136 179 232 247 301 192 163 283 236 202 154 162 156 174 253 190 185 185 175 159 148 136 130 140 124 114 210 239 256 270 295 290 293 284 276 290 306 309 306 289 273
44 17 168 142 235 284 255 272 183 118 253 195 185 168 159 196 209 92 159 160 149 141 133 122 122 123 120 125 134 260 277 273 301 304 295 294 283 264 279 301 303 307 292 199
175 155 184 107 201 275 185 108 176 226 280 250 207 191 194 210 146 143 147 139 138 131 128 124 134 130 136 103 69 290 278 302 304 298 291 294 286 258 269 285 294 284 244 219
234 197 181 196 219 239 222 238 231 181 252 261 240 267 262 196 170 141 130 121 120 127 127 124 126 137 122 100 90 269 281 310 306 297 291 300 293 273 281 281 279 268 237 232
233 172 218 107 251 237 241 265 257 241 247 234 232 247 197 200 158 134 129 129 118 117 158 130 142 162 192 262 253 236 311 306 304 300 296 305 295 289 286 276 269 256 237 228
198 144 177 262 279 268 258 230 260 271 246 252 245 241 212 160 147 134 124 124 126 156 148 131 142 187 234 283 276 302 309 303 310 309 294 290 289 293 293 264 258 242 234 232
181 186 177 231 247 215 259 304 300 272 269 266 180 121 119 135 122 120 114 129 165 142 129 145 164 223 283 292 296 300 292 294 298 294 285 282 285 294 289 264 260 225 242 237